When you browse on this site, cookies collect data to enhance your experience and personalize the content and advertising you see.
Visit our Privacy Policy to learn more. By continuing to use the site, you agree to this use of cookies and data.
  • In Deutschland
  • Länderverzeichnis
  • Für 7 Tage
  • Wassertemperatur
  • Wetterkarte
  • Widgets
  • user-avatar
    Anmelden

    Stündliche Wetter San Luis

    Heute, 25 Februar, Dienstag

    Zeit Temperatur Niederschläge Wind Luftdruck Luftfeuchtigkeit
    00:00 +19°C° 0 mm 5 m/S 697 mmHg 59%
    01:00 +19°C° 0 mm 4 m/S 697 mmHg 60%
    02:00 +19°C° 0 mm 3 m/S 696 mmHg 63%
    03:00 +18°C° 0 mm 2 m/S 696 mmHg 66%
    04:00 +17°C° 0 mm 2 m/S 696 mmHg 68%
    05:00 +16°C° 0 mm 1 m/S 696 mmHg 71%
    06:00 +18°C° 0 mm 2 m/S 697 mmHg 66%
    07:00 +19°C° 0 mm 2 m/S 698 mmHg 60%
    08:00 +20°C° 0 mm 3 m/S 699 mmHg 55%
    09:00 +24°C° 0 mm 3 m/S 699 mmHg 45%
    10:00 +26°C° 0 mm 4 m/S 700 mmHg 35%
    11:00 +28°C° 0 mm 4 m/S 700 mmHg 25%
    12:00 +29°C° 0 mm 4 m/S 700 mmHg 23%
    13:00 +29°C° 0 mm 4 m/S 699 mmHg 21%
    14:00 +30°C° 0 mm 4 m/S 699 mmHg 18%
    15:00 +30°C° 0 mm 4 m/S 699 mmHg 18%
    16:00 +30°C° 0 mm 4 m/S 699 mmHg 18%
    17:00 +30°C° 0 mm 4 m/S 698 mmHg 18%
    18:00 +27°C° 0 mm 4 m/S 698 mmHg 21%
    19:00 +25°C° 0 mm 4 m/S 698 mmHg 24%
    20:00 +22°C° 0 mm 4 m/S 699 mmHg 27%
    21:00 +21°C° 0 mm 4 m/S 699 mmHg 27%
    22:00 +20°C° 0 mm 4 m/S 700 mmHg 27%
    23:00 +20°C° 0 mm 5 m/S 700 mmHg 27%

    Morgen, 26 Februar, Mittwoch

    Zeit Temperatur Niederschläge Wind Luftdruck Luftfeuchtigkeit
    00:00 +19°C° 0 mm 5 m/S 700 mmHg 26%
    01:00 +19°C° 0 mm 5 m/S 700 mmHg 26%
    02:00 +19°C° 0 mm 5 m/S 700 mmHg 26%
    03:00 +19°C° 0 mm 5 m/S 700 mmHg 27%
    04:00 +18°C° 0 mm 4 m/S 700 mmHg 28%
    05:00 +18°C° 0 mm 4 m/S 699 mmHg 30%
    06:00 +20°C° 0 mm 4 m/S 700 mmHg 28%
    07:00 +21°C° 0 mm 4 m/S 700 mmHg 27%
    08:00 +24°C° 0 mm 3 m/S 701 mmHg 25%
    09:00 +26°C° 0 mm 3 m/S 701 mmHg 24%
    10:00 +28°C° 0 mm 3 m/S 701 mmHg 22%
    11:00 +30°C° 0 mm 2 m/S 701 mmHg 20%
    12:00 +31°C° 0 mm 2 m/S 700 mmHg 20%
    13:00 +32°C° 0 mm 2 m/S 700 mmHg 21%
    14:00 +34°C° 0 mm 3 m/S 699 mmHg 21%
    15:00 +34°C° 0 mm 2 m/S 698 mmHg 22%
    16:00 +34°C° 0 mm 2 m/S 698 mmHg 22%
    17:00 +34°C° 0 mm 2 m/S 697 mmHg 23%
    18:00 +30°C° 0 mm 3 m/S 697 mmHg 26%
    19:00 +28°C° 0 mm 3 m/S 697 mmHg 29%
    20:00 +26°C° 0 mm 4 m/S 697 mmHg 32%
    21:00 +25°C° 0 mm 4 m/S 697 mmHg 32%
    22:00 +23°C° 0 mm 4 m/S 697 mmHg 33%
    23:00 +23°C° 0 mm 5 m/S 698 mmHg 33%

    übermorgen, 27 Februar, Donnerstag

    Zeit Temperatur Niederschläge Wind Luftdruck Luftfeuchtigkeit
    00:00 +23°C° 0 mm 5 m/S 697 mmHg 34%
    01:00 +22°C° 0 mm 5 m/S 697 mmHg 35%
    02:00 +22°C° 0 mm 5 m/S 697 mmHg 36%
    03:00 +22°C° 0 mm 5 m/S 697 mmHg 35%
    04:00 +22°C° 0 mm 5 m/S 697 mmHg 34%
    05:00 +22°C° 0 mm 6 m/S 697 mmHg 33%
    06:00 +24°C° 0 mm 7 m/S 697 mmHg 31%
    07:00 +26°C° 0 mm 7 m/S 698 mmHg 29%
    08:00 +27°C° 0 mm 8 m/S 698 mmHg 27%
    09:00 +29°C° 0 mm 8 m/S 698 mmHg 26%
    10:00 +30°C° 0 mm 7 m/S 698 mmHg 24%
    11:00 +33°C° 0 mm 7 m/S 699 mmHg 22%
    12:00 +34°C° 0 mm 7 m/S 698 mmHg 21%
    13:00 +35°C° 0 mm 6 m/S 698 mmHg 20%
    14:00 +36°C° 0 mm 6 m/S 697 mmHg 19%
    15:00 +35°C° 0 mm 6 m/S 697 mmHg 20%
    16:00 +35°C° 0 mm 6 m/S 696 mmHg 20%
    17:00 +35°C° 0 mm 6 m/S 695 mmHg 20%
    18:00 +32°C° 0 mm 5 m/S 695 mmHg 23%
    19:00 +29°C° 0 mm 5 m/S 695 mmHg 27%
    20:00 +26°C° 0 mm 4 m/S 695 mmHg 31%
    21:00 +26°C° 0 mm 5 m/S 696 mmHg 31%
    22:00 +26°C° 0 mm 5 m/S 696 mmHg 31%
    23:00 +24°C° 0 mm 6 m/S 696 mmHg 31%

    28 Februar, Freitag

    Zeit Temperatur Niederschläge Wind Luftdruck Luftfeuchtigkeit
    00:00 +24°C° 0 mm 6 m/S 696 mmHg 31%
    01:00 +26°C° 0 mm 7 m/S 696 mmHg 31%
    02:00 +26°C° 0 mm 7 m/S 696 mmHg 31%
    03:00 +24°C° 0 mm 7 m/S 696 mmHg 32%
    04:00 +24°C° 0 mm 6 m/S 696 mmHg 33%
    05:00 +23°C° 0 mm 6 m/S 696 mmHg 34%
    06:00 +26°C° 0 mm 6 m/S 697 mmHg 32%
    07:00 +27°C° 0 mm 7 m/S 698 mmHg 31%
    08:00 +28°C° 0 mm 8 m/S 698 mmHg 29%
    09:00 +30°C° 0 mm 7 m/S 698 mmHg 27%
    10:00 +32°C° 0 mm 7 m/S 699 mmHg 25%
    11:00 +34°C° 0 mm 7 m/S 699 mmHg 23%
    12:00 +35°C° 0 mm 6 m/S 699 mmHg 21%
    13:00 +36°C° 0 mm 6 m/S 699 mmHg 20%
    14:00 +38°C° 0 mm 6 m/S 699 mmHg 18%
    15:00 +36°C° 0 mm 5 m/S 698 mmHg 18%
    16:00 +36°C° 0 mm 5 m/S 698 mmHg 19%
    17:00 +36°C° 0 mm 4 m/S 697 mmHg 19%
    18:00 +33°C° 0 mm 3 m/S 697 mmHg 24%
    19:00 +29°C° 0 mm 3 m/S 697 mmHg 30%
    20:00 +26°C° 0 mm 2 m/S 697 mmHg 36%
    21:00 +25°C° 0 mm 3 m/S 698 mmHg 39%
    22:00 +24°C° 0 mm 3 m/S 699 mmHg 41%
    23:00 +22°C° 0 mm 4 m/S 699 mmHg 44%

    29 Februar, Samstag

    Zeit Temperatur Niederschläge Wind Luftdruck Luftfeuchtigkeit
    00:00 +23°C° 0 mm 4 m/S 699 mmHg 42%
    01:00 +23°C° 0 mm 4 m/S 700 mmHg 41%
    02:00 +23°C° 0 mm 4 m/S 700 mmHg 40%
    03:00 +22°C° 0 mm 3 m/S 700 mmHg 41%
    04:00 +23°C° 0 mm 2 m/S 700 mmHg 42%
    05:00 +22°C° 0 mm 1 m/S 700 mmHg 42%
    06:00 +23°C° 0 mm 2 m/S 701 mmHg 41%
    07:00 +25°C° 0 mm 2 m/S 702 mmHg 40%
    08:00 +26°C° 0 mm 3 m/S 703 mmHg 38%
    09:00 +28°C° 0 mm 3 m/S 703 mmHg 34%
    10:00 +30°C° 0 mm 3 m/S 703 mmHg 30%
    11:00 +32°C° 0 mm 2 m/S 703 mmHg 26%
    12:00 +34°C° 0 mm 2 m/S 703 mmHg 24%
    13:00 +35°C° 0 mm 2 m/S 703 mmHg 22%
    14:00 +36°C° 0 mm 2 m/S 702 mmHg 20%
    15:00 +36°C° 0 mm 3 m/S 702 mmHg 20%
    16:00 +36°C° 0 mm 3 m/S 701 mmHg 19%
    17:00 +36°C° 0 mm 3 m/S 700 mmHg 19%
    18:00 +34°C° 0 mm 4 m/S 700 mmHg 22%
    19:00 +30°C° 0 mm 4 m/S 700 mmHg 25%
    20:00 +28°C° 0 mm 4 m/S 700 mmHg 29%
    21:00 +28°C° 0 mm 5 m/S 700 mmHg 29%
    22:00 +27°C° 0 mm 6 m/S 701 mmHg 29%
    23:00 +27°C° 0 mm 6 m/S 701 mmHg 28%

    1 März, Sonntag

    Zeit Temperatur Niederschläge Wind Luftdruck Luftfeuchtigkeit
    00:00 +26°C° 0 mm 6 m/S 701 mmHg 29%
    01:00 +26°C° 0 mm 5 m/S 700 mmHg 29%
    02:00 +26°C° 0 mm 5 m/S 700 mmHg 30%
    03:00 +25°C° 0 mm 5 m/S 700 mmHg 31%
    04:00 +25°C° 0 mm 5 m/S 700 mmHg 32%
    05:00 +25°C° 0 mm 5 m/S 700 mmHg 33%
    06:00 +27°C° 0 mm 5 m/S 700 mmHg 30%
    07:00 +29°C° 0 mm 6 m/S 701 mmHg 27%
    08:00 +30°C° 0 mm 6 m/S 701 mmHg 25%
    09:00 +33°C° 0 mm 7 m/S 701 mmHg 22%
    10:00 +35°C° 0 mm 8 m/S 701 mmHg 20%
    11:00 +38°C° 0 mm 8 m/S 701 mmHg 17%
    12:00 +38°C° 0 mm 8 m/S 701 mmHg 17%
    13:00 +38°C° 0 mm 8 m/S 700 mmHg 17%
    14:00 +39°C° 0 mm 8 m/S 700 mmHg 16%
    15:00 +39°C° 0 mm 8 m/S 699 mmHg 16%
    16:00 +38°C° 0 mm 7 m/S 699 mmHg 17%
    17:00 +38°C° 0 mm 7 m/S 698 mmHg 17%
    18:00 +34°C° 0 mm 6 m/S 698 mmHg 20%
    19:00 +32°C° 0 mm 5 m/S 698 mmHg 23%
    20:00 +28°C° 0 mm 4 m/S 697 mmHg 26%
    21:00 +28°C° 0 mm 4 m/S 698 mmHg 25%
    22:00 +28°C° 0 mm 5 m/S 698 mmHg 24%
    23:00 +28°C° 0 mm 5 m/S 699 mmHg 23%
    Mehr zeigen